Regional Weather Roundup
Issued by NWS Sioux Falls, SD

Home | Current Version | Previous Version | Graphics & Text | Print | Product List | Glossary On
Versions: 1 2 3 4 5 6 7 8 9 10 11 12 13 14 15 16 17 18 19 20 21 22 23 24 25 26 27 28 29 30 31 32 33 34 35 36 37 38 39 40 41 42 43 44 45 46 47 48 49 50
000
ASUS43 KFSD 061910
RWRFSD

WEATHER ROUNDUP FOR SE SOUTH DAKOTA/SW MINNESOTA/NW IOWA
NATIONAL WEATHER SERVICE SIOUX FALLS SD
200 PM CDT WED MAY 06 2015

NOTE: "FAIR" INDICATES FEW OR NO CLOUDS BELOW 12,000 FEET WITH NO
SIGNIFICANT WEATHER AND OR OBSTRUCTIONS TO VISIBILITY.


SDZ038>040-050-052>070-062000-
SOUTHEAST SOUTH DAKOTA

CITY           SKY/WX    TMP DP  RH WIND       PRES   REMARKS
BROOKINGS      CLOUDY    66  61  82 SE23G39   29.77F
CHAMBERLAIN    RAIN      61  60  97 SE6       29.66F
HURON          CLOUDY    64  61  90 SE20G28   29.69F
MADISON        MOCLDY    63  63 100 S23G33    29.76F
MITCHELL       CLOUDY    65  63  93 SE18G24   29.69F
SIOUX FALLS    CLOUDY    66  61  84 S21G31    29.77F
WINNER         LGT RAIN  65  59  81 SE15      29.66F
YANKTON        CLOUDY    64  61  88 S16G23    29.74S
$$

MNZ071-072-080-081-089-090-097-098-062000-
SOUTHWEST MINNESOTA

CITY           SKY/WX    TMP DP  RH WIND       PRES   REMARKS
FAIRMONT       PTSUNNY   72  45  37 SE24G30   29.85F
JACKSON        CLOUDY    70  61  73 S18G26    29.86F
LUVERNE        RAIN      68  59  73 S22G33    29.80F
MARSHALL       CLOUDY    68  57  68 S30G41    29.79F
MONTEVIDEO     CLOUDY    73  57  56 S28       29.80F
REDWOOD FALLS  PTSUNNY   76  56  49 SE23G36   29.81F
TRACY          LGT RAIN  68  64  85 SE20G29   29.82S
WORTHINGTON    PTSUNNY   64  61  88 S24G31    29.83F
$$

IAZ001>003-012>014-020>022-031-032-NEZ013-014-SDZ071-062000-
NORTHWEST IOWA

CITY           SKY/WX    TMP DP  RH WIND       PRES   REMARKS
CHEROKEE       CLOUDY    73  60  63 S26G32    29.83F
DENISON        PTSUNNY   73  61  64 S23G31    29.84S
ESTHERVILLE    CLOUDY    67  62  84 S30G44    29.86F
LE MARS        CLOUDY    73  59  60 S26G39    29.79F
ORANGE CITY    CLOUDY    70  57  64 S23G29    29.80F
SHELDON        CLOUDY    72  66  83 S30G39    29.80F
SIOUX CITY     CLOUDY    72  59  63 S23       29.79F
SPENCER        PTSUNNY   70  63  78 S26G32    29.85F
STORM LAKE     CLOUDY    73  59  60 S29G38    29.85F
$$

ABBREVIATIONS USED IN REMARKS
   TC - TEMPERATURE IN CELSIUS
  WCI - WIND CHILL INDEX
   HX - HEAT INDEX
  VSB - VISIBILITY




USA.gov is the U.S. government's official web portal to all federal, state and local government web resources and services.